Location: El Azufral
(10.3513°N, 67.1528°W)
Time: 10:50:27
(UTC+00:00)

Lacrosse 4 Rocket - Pass Details

Date: 13 June 2024
Orbit: 525 x 593 km, 68.0° (Epoch: 20 July)

Event Time Altitude Azimuth Distance (km) Brightness Sun altitude
Rises 23:09:02 0° 349° (N) 2,776 5.5 -5.0°
Reaches altitude 10° 23:11:17 10° 355° (N) 1,888 4.5 -5.5°
Maximum altitude 23:15:24 48° 70° (ENE) 763 1.8 -6.4°
Drops below altitude 10° 23:19:34 10° 145° (SE) 1,916 3.6 -7.3°
Enters shadow 23:20:44 - 149° (SSE) 2,371 4.0 -7.6°
